THEMIS D

Last updated on July 6, 2021, 3:27 p.m. UTC

1 30797U 07004D   21186.28218170 -.00000673  00000-0  00000-0 0  9991
2 30797  13.4384   2.1021 8372543 116.1257  25.1271  0.87839737 25188
UTC
Height (km)
Latitude
Longitude
Inclination
Orbital Period
UTC large
Height (km)
Speed (km/s)
/
Latitude / Longitude
Inclination (degrees)
Orbital Period (minutes)
Azimuth
Elevation
Range (km)
Doppler Factor
iOS Compass Heading
iOS Angle